• In Belarus
  • List of Countries
  • For 7 days
  • Water Temperature
  • Satellite Maps
  • Weather Map
  • Weather Widgets
  • user-avatar
    Login

    Hourly Weather Capotillo

    Today, 16 December, Saturday

    Time Temperature Precipitation Wind Pressure Humidity
    00:00 +24°C° 0.1 mm 3 mps 761 mmHg 90%
    01:00 +23°C° 0.1 mm 4 mps 761 mmHg 90%
    02:00 +23°C° 0 mm 4 mps 761 mmHg 90%
    03:00 +23°C° 0 mm 4 mps 761 mmHg 90%
    04:00 +23°C° 0 mm 4 mps 761 mmHg 90%
    05:00 +23°C° 0 mm 4 mps 761 mmHg 89%
    06:00 +23°C° 0 mm 4 mps 761 mmHg 89%
    07:00 +25°C° 0 mm 4 mps 761 mmHg 88%
    08:00 +26°C° 0 mm 4 mps 762 mmHg 81%
    09:00 +28°C° 0 mm 4 mps 762 mmHg 74%
    10:00 +30°C° 0 mm 4 mps 762 mmHg 67%
    11:00 +30°C° 0.1 mm 4 mps 762 mmHg 66%
    12:00 +32°C° 0.1 mm 4 mps 761 mmHg 64%
    13:00 +32°C° 0.1 mm 4 mps 760 mmHg 63%
    14:00 +32°C° 0.2 mm 4 mps 760 mmHg 67%
    15:00 +30°C° 0.2 mm 4 mps 760 mmHg 70%
    16:00 +30°C° 0.2 mm 4 mps 760 mmHg 74%
    17:00 +28°C° 0.1 mm 4 mps 760 mmHg 79%
    18:00 +27°C° 0.1 mm 4 mps 760 mmHg 84%
    19:00 +26°C° 0.1 mm 4 mps 761 mmHg 89%
    20:00 +25°C° 0 mm 4 mps 761 mmHg 89%
    21:00 +25°C° 0 mm 4 mps 761 mmHg 90%
    22:00 +25°C° 0 mm 4 mps 761 mmHg 90%
    23:00 +25°C° 0 mm 5 mps 761 mmHg 90%

    Tomorrow, 17 December, Sunday

    Time Temperature Precipitation Wind Pressure Humidity
    00:00 +25°C° 0 mm 5 mps 761 mmHg 90%
    01:00 +23°C° 0 mm 5 mps 761 mmHg 90%
    02:00 +23°C° 0.1 mm 4 mps 760 mmHg 90%
    03:00 +23°C° 0.1 mm 4 mps 760 mmHg 90%
    04:00 +23°C° 0.1 mm 4 mps 760 mmHg 90%
    05:00 +25°C° 0.1 mm 4 mps 760 mmHg 90%
    06:00 +25°C° 0.1 mm 5 mps 761 mmHg 90%
    07:00 +25°C° 0.1 mm 5 mps 761 mmHg 89%
    08:00 +27°C° 0.1 mm 5 mps 762 mmHg 83%
    09:00 +28°C° 0.1 mm 6 mps 762 mmHg 76%
    10:00 +30°C° 0.1 mm 6 mps 762 mmHg 69%
    11:00 +30°C° 0.2 mm 6 mps 762 mmHg 66%
    12:00 +32°C° 0.2 mm 6 mps 761 mmHg 63%
    13:00 +33°C° 0.2 mm 6 mps 761 mmHg 61%
    14:00 +32°C° 0.1 mm 6 mps 760 mmHg 62%
    15:00 +30°C° 0.1 mm 6 mps 760 mmHg 64%
    16:00 +30°C° 0.1 mm 5 mps 760 mmHg 65%
    17:00 +28°C° 0 mm 5 mps 760 mmHg 70%
    18:00 +27°C° 0 mm 5 mps 761 mmHg 75%
    19:00 +25°C° 0 mm 5 mps 761 mmHg 80%
    20:00 +25°C° 0 mm 5 mps 761 mmHg 81%
    21:00 +25°C° 0 mm 5 mps 762 mmHg 82%
    22:00 +23°C° 0 mm 5 mps 762 mmHg 84%
    23:00 +23°C° 0 mm 5 mps 762 mmHg 84%

    Day after tomorrow, 18 December, Monday

    Time Temperature Precipitation Wind Pressure Humidity
    00:00 +23°C° 0 mm 5 mps 761 mmHg 84%
    01:00 +23°C° 0 mm 5 mps 761 mmHg 84%
    02:00 +23°C° 0 mm 5 mps 761 mmHg 85%
    03:00 +23°C° 0 mm 5 mps 761 mmHg 85%
    04:00 +23°C° 0 mm 5 mps 760 mmHg 85%
    05:00 +23°C° 0 mm 5 mps 761 mmHg 84%
    06:00 +23°C° 0 mm 5 mps 761 mmHg 83%
    07:00 +23°C° 0 mm 5 mps 761 mmHg 82%
    08:00 +26°C° 0 mm 5 mps 762 mmHg 77%
    09:00 +28°C° 0 mm 5 mps 762 mmHg 71%
    10:00 +30°C° 0 mm 5 mps 762 mmHg 65%
    11:00 +30°C° 0 mm 5 mps 762 mmHg 63%
    12:00 +32°C° 0 mm 5 mps 761 mmHg 60%
    13:00 +33°C° 0 mm 5 mps 761 mmHg 57%
    14:00 +32°C° 0 mm 5 mps 760 mmHg 60%
    15:00 +32°C° 0 mm 5 mps 760 mmHg 63%
    16:00 +30°C° 0 mm 5 mps 759 mmHg 66%
    17:00 +28°C° 0 mm 5 mps 760 mmHg 72%
    18:00 +27°C° 0 mm 4 mps 761 mmHg 78%
    19:00 +25°C° 0 mm 4 mps 761 mmHg 84%
    20:00 +25°C° 0 mm 4 mps 761 mmHg 85%
    21:00 +25°C° 0 mm 4 mps 761 mmHg 85%
    22:00 +25°C° 0 mm 4 mps 762 mmHg 86%
    23:00 +23°C° 0 mm 4 mps 761 mmHg 86%

    19 December, Tuesday

    Time Temperature Precipitation Wind Pressure Humidity
    00:00 +23°C° 0 mm 4 mps 761 mmHg 87%
    01:00 +23°C° 0 mm 4 mps 761 mmHg 87%
    02:00 +23°C° 0 mm 4 mps 761 mmHg 87%
    03:00 +23°C° 0 mm 4 mps 760 mmHg 87%
    04:00 +23°C° 0 mm 4 mps 760 mmHg 87%
    05:00 +23°C° 0 mm 4 mps 761 mmHg 86%
    06:00 +23°C° 0 mm 4 mps 761 mmHg 85%
    07:00 +25°C° 0 mm 4 mps 762 mmHg 84%
    08:00 +26°C° 0 mm 4 mps 762 mmHg 78%
    09:00 +28°C° 0 mm 4 mps 762 mmHg 73%
    10:00 +30°C° 0 mm 4 mps 762 mmHg 67%
    11:00 +32°C° 0.1 mm 4 mps 761 mmHg 65%
    12:00 +32°C° 0.1 mm 4 mps 760 mmHg 63%
    13:00 +33°C° 0.1 mm 4 mps 760 mmHg 61%
    14:00 +32°C° 0.1 mm 4 mps 759 mmHg 64%
    15:00 +30°C° 0.1 mm 4 mps 759 mmHg 68%
    16:00 +30°C° 0.1 mm 4 mps 759 mmHg 71%
    17:00 +28°C° 0 mm 4 mps 759 mmHg 76%
    18:00 +27°C° 0 mm 4 mps 760 mmHg 81%
    19:00 +26°C° 0 mm 4 mps 760 mmHg 86%
    20:00 +25°C° 0 mm 4 mps 760 mmHg 87%
    21:00 +25°C° 0 mm 4 mps 760 mmHg 87%
    22:00 +25°C° 0 mm 4 mps 760 mmHg 88%
    23:00 +25°C° 0 mm 4 mps 760 mmHg 88%

    20 December, Wednesday

    Time Temperature Precipitation Wind Pressure Humidity
    00:00 +23°C° 0 mm 4 mps 760 mmHg 89%
    01:00 +23°C° 0 mm 4 mps 760 mmHg 89%
    02:00 +23°C° 0 mm 4 mps 760 mmHg 89%
    03:00 +23°C° 0 mm 4 mps 759 mmHg 90%
    04:00 +23°C° 0 mm 4 mps 759 mmHg 90%
    05:00 +23°C° 0 mm 4 mps 760 mmHg 89%
    06:00 +24°C° 0 mm 3 mps 760 mmHg 87%
    07:00 +25°C° 0 mm 3 mps 761 mmHg 86%
    08:00 +26°C° 0 mm 3 mps 761 mmHg 81%
    09:00 +28°C° 0 mm 4 mps 761 mmHg 75%
    10:00 +30°C° 0 mm 4 mps 761 mmHg 69%
    11:00 +30°C° 0.2 mm 4 mps 760 mmHg 68%
    12:00 +32°C° 0.2 mm 4 mps 760 mmHg 67%
    13:00 +32°C° 0.2 mm 4 mps 759 mmHg 65%
    14:00 +30°C° 0.2 mm 4 mps 759 mmHg 68%
    15:00 +30°C° 0.2 mm 4 mps 758 mmHg 71%
    16:00 +29°C° 0.2 mm 4 mps 758 mmHg 74%
    17:00 +28°C° 0.1 mm 4 mps 759 mmHg 79%
    18:00 +27°C° 0.1 mm 3 mps 759 mmHg 84%
    19:00 +26°C° 0.1 mm 3 mps 759 mmHg 89%
    20:00 +25°C° 0 mm 3 mps 759 mmHg 90%
    21:00 +25°C° 0 mm 3 mps 759 mmHg 90%
    22:00 +25°C° 0 mm 3 mps 759 mmHg 91%
    23:00 +23°C° 0 mm 4 mps 759 mmHg 91%

    21 December, Thursday

    Time Temperature Precipitation Wind Pressure Humidity
    00:00 +23°C° 0 mm 4 mps 759 mmHg 91%
    01:00 +23°C° 0 mm 4 mps 759 mmHg 91%
    02:00 +23°C° 0 mm 4 mps 759 mmHg 91%
    03:00 +23°C° 0 mm 4 mps 759 mmHg 91%
    04:00 +23°C° 0 mm 4 mps 759 mmHg 91%
    05:00 +23°C° 0 mm 4 mps 759 mmHg 90%
    06:00 +23°C° 0 mm 4 mps 760 mmHg 89%
    07:00 +25°C° 0 mm 4 mps 760 mmHg 88%
    08:00 +26°C° 0.1 mm 4 mps 760 mmHg 82%
    09:00 +28°C° 0.1 mm 4 mps 760 mmHg 75%
    10:00 +30°C° 0.1 mm 4 mps 761 mmHg 69%
    11:00 +30°C° 0.2 mm 4 mps 760 mmHg 67%
    12:00 +32°C° 0.2 mm 4 mps 759 mmHg 65%
    13:00 +32°C° 0.2 mm 4 mps 759 mmHg 62%
    14:00 +32°C° 0.2 mm 4 mps 759 mmHg 66%
    15:00 +30°C° 0.2 mm 4 mps 758 mmHg 69%
    16:00 +30°C° 0.2 mm 4 mps 758 mmHg 73%
    17:00 +28°C° 0.1 mm 3 mps 759 mmHg 78%
    18:00 +27°C° 0.1 mm 3 mps 759 mmHg 83%
    19:00 +26°C° 0.1 mm 3 mps 760 mmHg 88%
    20:00 +25°C° 0.1 mm 3 mps 760 mmHg 89%
    21:00 +25°C° 0.1 mm 4 mps 760 mmHg 90%
    22:00 +25°C° 0.1 mm 4 mps 760 mmHg 91%
    23:00 +23°C° 0.1 mm 4 mps 760 mmHg 91%
    Show more

    XHprof extension not loaded